When you browse on this site, cookies collect data to enhance your experience and personalize the content and advertising you see.
Visit our Privacy Policy to learn more. By continuing to use the site, you agree to this use of cookies and data.
  • In Hungary
  • List of Countries
  • For 7 days
  • Water Temperature
  • Satellite Maps
  • Weather Map
  • News
  • Weather Widgets
  • user-avatar
    Login

    Hourly Weather Klodzin

    Today, 19 December, Wednesday

    Time Temperature Precipitation Wind Pressure Humidity
    00:00 -1°C° 0 mm 3 mps 762 mmHg 95%
    01:00 -1°C° 0 mm 3 mps 761 mmHg 94%
    02:00 -1°C° 0 mm 3 mps 761 mmHg 93%
    03:00 -1°C° 0 mm 3 mps 761 mmHg 92%
    04:00 -2°C° 0 mm 4 mps 761 mmHg 90%
    05:00 -2°C° 0 mm 4 mps 761 mmHg 90%
    06:00 -3°C° 0 mm 4 mps 760 mmHg 89%
    07:00 -3°C° 0 mm 4 mps 760 mmHg 89%
    08:00 -4°C° 0 mm 5 mps 760 mmHg 86%
    09:00 -4°C° 0 mm 5 mps 760 mmHg 84%
    10:00 -4°C° 0 mm 6 mps 760 mmHg 81%
    11:00 -3°C° 0 mm 6 mps 759 mmHg 80%
    12:00 -3°C° 0 mm 6 mps 759 mmHg 79%
    13:00 -3°C° 0 mm 6 mps 759 mmHg 78%
    14:00 -2°C° 0 mm 5 mps 758 mmHg 79%
    15:00 -4°C° 0 mm 5 mps 758 mmHg 80%
    16:00 -4°C° 0 mm 5 mps 757 mmHg 82%
    17:00 -4°C° 0 mm 5 mps 757 mmHg 82%
    18:00 -4°C° 0 mm 5 mps 757 mmHg 82%
    19:00 -4°C° 0 mm 5 mps 757 mmHg 82%
    20:00 -4°C° 0 mm 5 mps 757 mmHg 82%
    21:00 -3°C° 0 mm 4 mps 756 mmHg 82%
    22:00 -3°C° 0 mm 4 mps 756 mmHg 83%
    23:00 -3°C° 0 mm 4 mps 756 mmHg 83%

    Tomorrow, 20 December, Thursday

    Time Temperature Precipitation Wind Pressure Humidity
    00:00 -3°C° 0 mm 4 mps 756 mmHg 83%
    01:00 -3°C° 0 mm 4 mps 756 mmHg 83%
    02:00 -2°C° 0 mm 3 mps 756 mmHg 84%
    03:00 -2°C° 0 mm 3 mps 756 mmHg 85%
    04:00 -2°C° 0 mm 3 mps 755 mmHg 86%
    05:00 -2°C° 0.1 mm 3 mps 755 mmHg 87%
    06:00 -2°C° 0.1 mm 3 mps 755 mmHg 87%
    07:00 -2°C° 0.1 mm 3 mps 755 mmHg 88%
    08:00 -2°C° 0.1 mm 3 mps 755 mmHg 88%
    09:00 -1°C° 0.1 mm 3 mps 755 mmHg 87%
    10:00 -1°C° 0.1 mm 3 mps 755 mmHg 86%
    11:00 -1°C° 0.1 mm 3 mps 755 mmHg 86%
    12:00 -1°C° 0.1 mm 3 mps 755 mmHg 85%
    13:00 0°C° 0.1 mm 3 mps 755 mmHg 84%
    14:00 -1°C° 0.1 mm 3 mps 754 mmHg 86%
    15:00 -1°C° 0.1 mm 3 mps 754 mmHg 88%
    16:00 -1°C° 0.1 mm 2 mps 754 mmHg 89%
    17:00 -1°C° 0.1 mm 3 mps 754 mmHg 91%
    18:00 -1°C° 0.1 mm 3 mps 754 mmHg 92%
    19:00 -1°C° 0.1 mm 3 mps 754 mmHg 93%
    20:00 -1°C° 0.1 mm 3 mps 754 mmHg 93%
    21:00 -1°C° 0.1 mm 3 mps 754 mmHg 94%
    22:00 -1°C° 0.1 mm 3 mps 754 mmHg 95%
    23:00 0°C° 0.1 mm 3 mps 754 mmHg 95%

    Day after tomorrow, 21 December, Friday

    Time Temperature Precipitation Wind Pressure Humidity
    00:00 0°C° 0.1 mm 3 mps 754 mmHg 95%
    01:00 0°C° 0.1 mm 3 mps 753 mmHg 95%
    02:00 0°C° 0 mm 3 mps 753 mmHg 95%
    03:00 0°C° 0 mm 3 mps 753 mmHg 95%
    04:00 0°C° 0 mm 3 mps 753 mmHg 95%
    05:00 0°C° 0 mm 3 mps 752 mmHg 95%
    06:00 0°C° 0 mm 3 mps 752 mmHg 95%
    07:00 0°C° 0 mm 3 mps 752 mmHg 95%
    08:00 0°C° 0 mm 3 mps 752 mmHg 95%
    09:00 +1°C° 0 mm 3 mps 751 mmHg 94%
    10:00 +1°C° 0 mm 3 mps 751 mmHg 94%
    11:00 +1°C° 0.1 mm 3 mps 751 mmHg 94%
    12:00 +1°C° 0.1 mm 3 mps 750 mmHg 95%
    13:00 +1°C° 0.1 mm 3 mps 749 mmHg 95%
    14:00 +1°C° 0 mm 3 mps 749 mmHg 95%
    15:00 +1°C° 0 mm 3 mps 748 mmHg 94%
    16:00 0°C° 0 mm 3 mps 748 mmHg 94%
    17:00 -1°C° 0.1 mm 4 mps 747 mmHg 94%
    18:00 -1°C° 0.1 mm 4 mps 746 mmHg 94%
    19:00 0°C° 0.1 mm 4 mps 746 mmHg 94%
    20:00 0°C° 0.3 mm 4 mps 745 mmHg 94%
    21:00 0°C° 0.3 mm 4 mps 744 mmHg 95%
    22:00 0°C° 0.3 mm 4 mps 743 mmHg 95%
    23:00 0°C° 1.7 mm 4 mps 742 mmHg 95%

    22 December, Saturday

    Time Temperature Precipitation Wind Pressure Humidity
    00:00 0°C° 1.7 mm 4 mps 741 mmHg 95%
    01:00 +1°C° 1.7 mm 4 mps 741 mmHg 96%
    02:00 +1°C° 0.5 mm 5 mps 741 mmHg 92%
    03:00 +2°C° 0.5 mm 6 mps 740 mmHg 89%
    04:00 +3°C° 0.5 mm 7 mps 740 mmHg 86%
    05:00 +3°C° 0.1 mm 7 mps 741 mmHg 86%
    06:00 +3°C° 0.1 mm 7 mps 741 mmHg 86%
    07:00 +2°C° 0.1 mm 6 mps 741 mmHg 86%
    08:00 +3°C° 0.1 mm 6 mps 741 mmHg 87%
    09:00 +3°C° 0.1 mm 6 mps 741 mmHg 88%
    10:00 +3°C° 0.1 mm 7 mps 742 mmHg 89%
    11:00 +4°C° 0.1 mm 7 mps 742 mmHg 88%
    12:00 +4°C° 0.1 mm 6 mps 741 mmHg 88%
    13:00 +4°C° 0.1 mm 6 mps 741 mmHg 87%
    14:00 +4°C° 0.1 mm 6 mps 741 mmHg 88%
    15:00 +5°C° 0.1 mm 5 mps 741 mmHg 90%
    16:00 +3°C° 0.1 mm 5 mps 741 mmHg 91%
    17:00 +3°C° 0.2 mm 5 mps 741 mmHg 89%
    18:00 +3°C° 0.2 mm 6 mps 742 mmHg 88%
    19:00 +3°C° 0.2 mm 6 mps 742 mmHg 87%
    20:00 +3°C° 0.3 mm 6 mps 743 mmHg 87%
    21:00 +2°C° 0.3 mm 7 mps 744 mmHg 88%
    22:00 +2°C° 0.3 mm 7 mps 745 mmHg 88%
    23:00 0°C° 0.1 mm 7 mps 746 mmHg 88%

    23 December, Sunday

    Time Temperature Precipitation Wind Pressure Humidity
    00:00 +1°C° 0.1 mm 6 mps 748 mmHg 87%
    01:00 +1°C° 0.1 mm 6 mps 749 mmHg 86%
    02:00 0°C° 0 mm 5 mps 750 mmHg 88%
    03:00 0°C° 0 mm 5 mps 751 mmHg 90%
    04:00 0°C° 0 mm 4 mps 751 mmHg 92%
    05:00 0°C° 0 mm 3 mps 752 mmHg 93%
    06:00 0°C° 0 mm 3 mps 752 mmHg 94%
    07:00 -1°C° 0 mm 2 mps 753 mmHg 95%
    08:00 +1°C° 0 mm 2 mps 753 mmHg 94%
    09:00 +1°C° 0 mm 2 mps 753 mmHg 93%
    10:00 +2°C° 0 mm 1 mps 754 mmHg 92%
    11:00 +3°C° 0 mm 1 mps 754 mmHg 90%
    12:00 +3°C° 0 mm 1 mps 754 mmHg 88%
    13:00 +4°C° 0 mm 1 mps 754 mmHg 86%
    14:00 +3°C° 0.3 mm 2 mps 754 mmHg 88%
    15:00 +2°C° 0.3 mm 2 mps 754 mmHg 91%
    16:00 +2°C° 0.3 mm 2 mps 754 mmHg 93%
    17:00 +1°C° 0.5 mm 3 mps 754 mmHg 93%
    18:00 +2°C° 0.5 mm 3 mps 754 mmHg 92%
    19:00 +1°C° 0.5 mm 4 mps 754 mmHg 92%
    20:00 +1°C° 0.4 mm 4 mps 753 mmHg 92%
    21:00 +1°C° 0.4 mm 5 mps 753 mmHg 91%
    22:00 +1°C° 0.4 mm 5 mps 753 mmHg 91%
    23:00 +1°C° 0.5 mm 5 mps 753 mmHg 90%

    24 December, Monday

    Time Temperature Precipitation Wind Pressure Humidity
    00:00 +2°C° 0.5 mm 5 mps 753 mmHg 90%
    01:00 +2°C° 0.5 mm 5 mps 753 mmHg 90%
    02:00 +2°C° 0.3 mm 5 mps 753 mmHg 90%
    03:00 +2°C° 0.3 mm 5 mps 752 mmHg 90%
    04:00 +2°C° 0.3 mm 5 mps 752 mmHg 90%
    05:00 +2°C° 0.1 mm 6 mps 753 mmHg 88%
    06:00 +2°C° 0.1 mm 6 mps 753 mmHg 87%
    07:00 +2°C° 0.1 mm 7 mps 754 mmHg 85%
    08:00 +1°C° 0 mm 6 mps 754 mmHg 85%
    09:00 +1°C° 0 mm 6 mps 755 mmHg 84%
    10:00 +1°C° 0 mm 6 mps 756 mmHg 84%
    11:00 +1°C° 0 mm 5 mps 757 mmHg 82%
    12:00 +1°C° 0 mm 5 mps 757 mmHg 79%
    13:00 +3°C° 0 mm 4 mps 758 mmHg 77%
    14:00 +1°C° 0 mm 4 mps 758 mmHg 80%
    15:00 +1°C° 0 mm 4 mps 759 mmHg 82%
    16:00 +2°C° 0 mm 3 mps 759 mmHg 85%
    17:00 +2°C° 0.1 mm 3 mps 759 mmHg 86%
    18:00 +1°C° 0.1 mm 3 mps 760 mmHg 88%
    19:00 0°C° 0.1 mm 4 mps 760 mmHg 89%
    20:00 +1°C° 0 mm 3 mps 760 mmHg 89%
    21:00 +1°C° 0 mm 3 mps 760 mmHg 88%
    22:00 0°C° 0 mm 3 mps 760 mmHg 88%
    23:00 0°C° 0 mm 3 mps 760 mmHg 88%
    Show more